www.pogodaiklimat.ru

Погода и климат >> Архив погоды >> Гана >> Sefwi Bekwai


ПОГОДА в Sefwi Bekwai

  • Прогноз погоды в Sefwi Bekwai
  • Монитор погоды в Sefwi Bekwai
  • Климат города

АРХИВ ПОГОДЫ в Sefwi Bekwai

Время (UTC), дата Ветер
(напр.,м/с)
 
Видим.   Явления Облачность Т
(С)
Тd
(С)
f
(%)
Тe
(С)
Тes
(С)
Комфортность P
(гПа)
Po
(гПа)
Тmin
(С)
Tmax
(С)
R
(мм)
R24
(мм)
S
(см)
12 14.09 СЗ 1 16 км 8/8 450 м
[Cu med, cong]
+31.5 +24.5 66 +44 +49 опасность
перегрева
1013.0 1013.0
18 14.09 ЮВ 1 16 км 6/4 420 м
[Cb cap Ac trans Ci sp]
+30.0 +23.5 68 +41 +41 опасность
перегрева
1010.2 1010.0 +32.7
21 14.09 ЮЗ 1 6000 м гроза, ливневой дождь 9/6 330 м
[Cb cap Ac As]
+25.4 +24.0 92 +35 +35 очень
душно
1013.3 1013.0
06 15.09 штиль 0 12 км 9/9 330 м
[Sc]
+23.8 +22.8 94 +31 +31 очень
душно
1013.4 1013.0 +23.2 7
09 15.09 ЮЗ 1 12 км 9/9 360 м
[Cu Sc]
+25.2 +23.5 90 +34 +35 очень
душно
1015.5 1016.0
12 15.09 ЮЗ 1 14 км 9/9 360 м
[Cu Sc]
+28.5 +23.7 75 +39 +42 очень
душно
1014.4 1014.0
15 15.09 ЮВ 1 16 км 8/6 480 м
[Cu med, cong Ac trans]
+21.5 +24.4 100 +28 +31 очень
душно
1010.4 1010.0
18 15.09 ЮЗ 1 15 км 9/3 480 м
[Cb cap Ac trans Cs]
+27.4 +24.1 82 +38 +38 очень
душно
1011.2 1011.0 +31.6
09 16.09 ЮЗ 1 14 км 9/9 330 м
[Sc]
+25.6 +23.1 86 +34 +35 очень
душно
1015.5 1016.0
12 16.09 Ю 1 14 км 9/9 360 м
[]
+27.8 +23.7 78 +38 +41 очень
душно
1013.6 1014.0
15 16.09 ЮЗ 1 17 км 6/6 480 м
[Cu med, cong]
+30.1 +24.3 71 +42 +48 опасность
перегрева
1010.3 1010.0
03 17.09 ЮЗ 1 12 км 9/9 300 м
[St As trans Ci fib]
+24.5 +23.3 93 +33 +33 очень
душно
1011.7 1012.0
06 17.09 штиль 0 12 км 9/8 330 м
[Sc Ac trans]
+24.4 +23.3 94 +33 +33 очень
душно
1013.0 1013.0 +23.9
09 17.09 ЮЗ 1 14 км 9/9 300 м
[Sc]
+25.3 +23.2 88 +34 +35 очень
душно
1015.6 1016.0
12 17.09 ЮЗ 1 16 км 9/6 360 м
[Cu Sc Ac trans]
+29.5 +24.1 73 +41 +47 опасность
перегрева
1013.1 1013.0
15 17.09 16 км н/о +31.5 +23.4 62 +42 +48 опасность
перегрева
1009.8 1010.0
21 17.09 ЮЗ 1 13 км 5/4 330 м
[Sc Ci sp]
+27.0 +24.0 84 +37 +37 очень
душно
1010.5 1011.0
03 18.09 штиль 0 12 км 9/9 330 м
[Sc]
+25.0 +22.9 88 +33 +33 очень
душно
1011.4 1011.0
06 18.09 ЮЗ 1 12 км {дождь} 9/9 330 м
[Sc]
+24.5 +23.8 96 +33 +33 очень
душно
1012.6 1013.0 +24.2 0.0
09 18.09 ЮЗ 1 15 км 9/9 330 м
[Cu Sc]
+27.0 +24.3 85 +38 +39 очень
душно
1014.2 1014.0
12 18.09 ЮЗ 1 16 км в посл. час дождь 9/9 360 м
[Cu Sc]
+29.4 +24.6 75 +42 +44 опасность
перегрева
1013.7 1014.0 0.2
15 18.09 СЗ 1 16 км 8/5 480 м
[Cu med, cong Ac trans]
+32.7 +23.8 60 +44 +49 опасность
перегрева
1009.0 1009.0
18 18.09 штиль 0 16 км 9/3 450 м
[Cu med, cong Ac trans Cs]
+31.0 +25.2 71 +45 +45 опасность
перегрева
1009.4 1009.0 +32.8 0.2
21 18.09 Ю 1 12 км гроза без осадков 9/9 330 м
[Cb cap]
+27.6 +24.7 84 +39 +39 очень
душно
1012.4 1012.0
00 19.09 ЮВ 2 10 км гроза без осадков {дождь} 9/9 330 м
[Cb cap]
+23.6 +22.4 93 +31 +31 очень
душно
1012.9 1013.0 1
12 19.09 штиль 0 16 км 9/6 360 м
[Cu Sc Ac trans]
+30.2 +23.5 67 +41 +47 опасность
перегрева
1012.3 1012.0
18 19.09 З 1 15 км гроза без осадков 6/4 330 м
[Cu Sc Ac trans Ci sp]
+29.5 +24.1 73 +41 +41 опасность
перегрева
1009.8 1010.0 +32.0
21 19.09 ЮЗ 1 12 км {гроза, дождь} 9/9 330 м
[Sc]
+26.1 +23.9 88 +36 +36 очень
душно
1012.7 1013.0
00 20.09 штиль 0 12 км {гроза, дождь} 9/9 330 м
[Sc]
+26.0 +24.4 91 +36 +36 очень
душно
1012.1 1012.0 0.1
03 20.09 штиль 0 12 км 9/9 330 м
[Sc]
+25.4 +24.0 92 +35 +35 очень
душно
1010.9 1011.0
06 20.09 штиль 0 12 км 9/4 330 м
[Sc Ac trans]
+25.2 +24.0 93 +35 +35 очень
душно
1011.7 1012.0 +24.5 0.1
09 20.09 ЮЗ 1 14 км 8/6 330 м
[Cu Sc Ac trans]
+28.0 +23.9 78 +39 +42 очень
душно
1013.6 1014.0
12 20.09 ЮВ 1 16 км 9/8 360 м
[Cu Sc Ac trans]
+30.5 +24.6 71 +43 +47 опасность
перегрева
1012.2 1012.0
15 20.09 ЮВ 2 16 км 8/8 480 м
[Cu med, cong Ci sp]
+31.6 +25.5 70 +46 +49 опасность
перегрева
1009.6 1010.0
18 20.09 СЗ 1 16 км {дождь} 8/3 360 м
[Cu Sc Ac trans Ci sp]
+30.0 +25.3 76 +44 +44 опасность
перегрева
1009.0 1009.0 +32.0 0.0
21 20.09 ЮЗ 1 10 км в посл. час дождь 9/6 330 м
[Cb cap Ac trans]
+26.2 +24.7 91 +37 +37 очень
душно
1011.8 1012.0

 

Местоположение метеостанции Sefwi Bekwai (Гана): широта 6.20 долгота -2.33 высота над уровнем моря 172 м.

В архиве по умолчанию представлена погода в Sefwi Bekwai за последнюю неделю. Архивные данные за месяц целиком и за предыдущие месяцы, начиная с января 2011 года, Вы можете получить, выбрав интересующий диапазон дат из раскрывающегося списка и нажав кнопку "Ввод!".


*Определитесь, кто Вы:
робот инопланетянин человек

Внимание! Время в таблицах - всемирное. Для получения местного времени необходимо прибавить поправку, которая в Sefwi Bekwai равна 1 ч.

Смотрите также архив погоды в соседних городах и на ближайших метеорологических станциях:

Погода в Kumasi (Гана) (99 км)
Погода в Sunyani (Гана) (126 км)
Погода в Adiake (Кот-д'Ивуар) (147 км)
Погода в Axim (Гана) (148 км)
Погода в Akim Oda (Гана) (152 км)
Погода в Takoradi (Гана) (159 км)
Погода в Wenchi (Гана) (174 км)
Погода в Saltpond (Гана) (178 км)
Погода в Abetifi (Гана) (182 км)
Погода в Abidjan (Кот-д'Ивуар) (206 км)

Пояснения к столбцам:

Ветер - указаны скорость ветра в м/с - средняя за 10 мин, порывы в срок и между сроками (в фигурных скобках) и направление, откуда дует ветер: С - северный, СВ - северо-восточный, В - восточный, ЮВ - юго-восточный, Ю - южный, ЮЗ - юго-западный, З - западный, СЗ - северо-западный.
Видимость - горизонтальная дальность видимости в метрах или километрах. При видимости от 1 до 10 км при отсутствии осадков обычно наблюдается дымка, при ухудшении видимости до 1 км и менее - туман. В сухую погоду видимость может ухудшаться дымом, пылью или мглою.
Явления - указаны атмосферные явления, наблюдавшиеся в срок или в последний час перед сроком; фигурными скобками обозначены явления, наблюдавшиеся между сроками (за 1-3 часа до срока); квадратными скобками обозначены град или гололедные отложения с указанием их диаметра в мм.
Облачность - указаны через наклонную черту общая и нижняя облачность в баллах и высота нижней границы облаков в метрах; квадратными скобками обозначены формы облаков: Ci - перистые, Cs - перисто-слоистые, Cc - перисто-кучевые, Ac - высококучевые, As - высокослоистые, Sc - слоисто-кучевые, Ns - слоисто-дождевые, Cu - кучевые, Cb - кучево-дождевые. Подробнее классификацию облаков см. в Атласе облаков (PDF).
T - Температура воздуха - температура, измеренная на высоте 2 м над землей.
Td - Температура точки росы - температура, при понижении до которой содержащийся в воздухе водяной пар достигнет насыщения.
f - Относительная влажность воздуха - влажноcть воздуха, измеренная на высоте 2 м над землей.
Te - Эффективная температура - температура, которую ощущает одетый по сезону человек в тени. Характеристика душности погоды. При расчете учитывается влияние влажности воздуха и скорости ветра на теплоощущения человека.
Tes - Эффективная температура на солнце - температура, которую ощущает человек, с поправкой на солнечный нагрев. Характеристика знойности погоды. Зависит от высоты солнца над горизонтом, облачности и скорости ветра. Ночью, в пасмурную погоду, а также при ветре 12 м/с и более поправка равна нулю.
P - Атмосферное давление - приведенное к уровню моря атмосферное давление.
Po - Атмосферное давление - измеренное на уровне метеостанции атмосферное давление.
Tmin - Минимальная температура - минимум температуры воздуха на высоте 2 м над землей.
Tmax - Максимальная температура - максимум температуры воздуха на высоте 2 м над землей.
R - Количество осадков - Количество выпавших осадков за период времени, мм. При наведении курсора мыши на число - период времени, за который выпало указанное количество осадков.
R24 - Количество осадков - Количество выпавших осадков за 24 часа, мм.
S - Снежный покров - Высота снежного покрова, см. При наведении курсора мыши на число - состояние снежного покрова и степень покрытия местности в баллах.